Location: ??
(35.5052°N, 139.7262°E)
Time: 01:44:04
(UTC+00:00)

ASTEX 1 - Pass Details

Date: 20 June 2021
Orbit: 720 x 743 km, 92.7° (Epoch: 26 July)

Event Time Altitude Azimuth Distance (km) Brightness Sun altitude
Exits shadow 18:13:30 17° 211° (SSW) 1,804 4.8 -12.8°
Maximum altitude 18:16:44 35° 269° (W) 1,172 4.1 -12.3°
Drops below altitude 10° 18:21:16 10° 335° (NNW) 2,235 6.1 -11.6°
Sets 18:23:45 0° 344° (NNW) 3,157 7.0 -11.2°
